Lexington Weather

Lexington, Massachusetts, USA

44°F
9/20/2020 10:15pm 
  • Lexington Conditions: Clear
  • Temperature: 44.1°F / 6.7°CColder 1.9°F than last hour.
  • Dew Point: 37.6°FDecreased 1.2°Fsince last hour.
  • Relative Humidity: 78%Increased 2.0% since last hour.
  • Wind: Calm, 10-min avg: Calm, gust: None
  • Barometer: 30.52 in Steady
  • Visibility: 10 miles
  • Rain Today: 0.00 in
  •   
Southeast Middlesex County - Special Weather Statement - Special Weather Statement
 - SEE ALL NEARBY ALERTS -

Regional Weather Roundup
for Boston / Norton, MA

        
000
ASUS41 KBOX 200204
RWRBOX

REGIONAL WEATHER ROUNDUP
NATIONAL WEATHER SERVICE BOSTON/NORTON MA
1000 PM EDT SAT SEP 19 2020

NOTE:  "FAIR" INDICATES FEW OR NO CLOUDS BELOW 12,000 FEET WITH NO 
SIGNIFICANT WEATHER AND/OR OBSTRUCTIONS TO VISIBILITY.

MAZALL-200300-
EASTERN MASSACHUSETTS
  
CITY           SKY/WX    TMP DP  RH WIND       PRES   REMARKS
BOSTON         CLEAR     54  34  46 N6        30.38R                  
BEVERLY        CLEAR     41  37  86 NW5       30.37R                  
LAWRENCE       CLEAR     49  29  46 N6        30.40R                  
BEDFORD        CLEAR     41  34  76 CALM      30.37R                  
BLUE HILL        N/A     49  30  48 N8        30.35R                  
NORWOOD        CLEAR     40  35  83 CALM      30.37R                  
MARSHFIELD     CLEAR     43  39  87 CALM      30.36R                  
PLYMOUTH       CLEAR     41  35  79 CALM      30.36R                  
TAUNTON        CLEAR     37  33  85 CALM      30.36R                  
NEW BEDFORD    CLEAR     41  37  86 CALM      30.36R                  
$$

MAZALL-200300-
CAPE COD AND THE ISLANDS
  
CITY           SKY/WX    TMP DP  RH WIND       PRES   REMARKS
FALMOUTH       CLEAR     41  36  81 CALM      30.34S                  
HYANNIS        CLEAR     41  35  79 CALM      30.34R                  
CHATHAM        CLEAR     47  37  68 N3        30.36R                  
PROVINCETOWN   CLEAR     55  37  50 N8        30.36R                  
NANTUCKET      CLEAR     48  37  65 NE8       30.34R                  
MARTHAS VNYRD  CLEAR     35  30  82 N3        30.35R                  
$$
 
MAZALL-200300-
CENTRAL AND WESTERN MASSACHUSETTS
  
CITY           SKY/WX    TMP DP  RH WIND       PRES   REMARKS
WORCESTER      CLEAR     49  28  44 N9        30.37R                  
FITCHBURG      CLEAR     48  28  46 N7        30.39R                  
ORANGE         CLEAR     40  34  79 CALM      30.40R                  
SPRINGFIELD    CLEAR     42  36  79 NE6       30.38R                  
WESTFIELD      CLEAR     43  35  73 NE3       30.39R                  
NORTH ADAMS    CLEAR     37  34  89 CALM      30.41R                  
PITTSFIELD     CLEAR     39  34  82 CALM      30.38R                  
$$
 
RIZALL-200300-
RHODE ISLAND
  
CITY           SKY/WX    TMP DP  RH WIND       PRES   REMARKS
PROVIDENCE     CLEAR     52  35  52 N3        30.37R                  
NEWPORT        CLEAR     51  33  50 E5        30.36R                  
BLOCK ISLAND   CLEAR     50  40  68 N3        30.36R                  
SMITHFIELD     CLEAR     42  36  79 CALM      30.37R                  
WESTERLY       CLEAR     45  36  70 NE7       30.37R                  
$$
 
CTZALL-200300-
CONNECTICUT
  
CITY           SKY/WX    TMP DP  RH WIND       PRES   REMARKS
BRADLEY INTL   CLEAR     48  32  53 N6        30.38R                  
HARTFORD       CLEAR     54  32  43 N7        30.38R                  
BRIDGEPORT     CLEAR     54  35  48 N8        30.37R                  
DANBURY        CLEAR     41  36  82 SW3       30.39R                  
GROTON         CLEAR     45  35  68 N6        30.35R                  
NEW HAVEN      CLEAR     51  39  63 N8        30.38R                  
CHESTER        FAIR      46  34  61 NW5       30.37R                  
MERIDEN        CLEAR     44  37  76 CALM      30.38R                  
WILLIMANTIC    CLEAR     43  36  76 NE3       30.39R                  
OXFORD         CLEAR     48  32  53 N9        30.38R                  
$$

MEZ002-015-021-024-NHZ003-005-008-011-012-014-VTZ005-008-200300-
NORTHERN NEW ENGLAND
  
CITY           SKY/WX    TMP DP  RH WIND       PRES   REMARKS
PORTLAND ME    CLEAR     48  29  47 N7        30.39R                  
BANGOR ME      CLEAR     45  28  51 NW9       30.37R                  
CONCORD NH     CLEAR     43  26  51 NW6       30.40R                  
MANCHESTER NH  CLEAR     51  28  41 CALM      30.38R                  
NASHUA NH      CLEAR     47  30  51 NW5       30.40R                  
PORTSMOUTH NH  CLEAR     49  27  41 N8        30.37R                  
JAFFREY NH     CLEAR     38  31  76 CALM      30.39R                  
KEENE NH       CLEAR     38  35  89 CALM      30.41R                  
BURLINGTON VT  CLEAR     42  32  67 CALM      30.44R                  
MT. WASHINGTON PTCLDY    21  16  79 N37         N/A  WCI   1          
$$

NYZ052-076-200300-
EASTERN NEW YORK
  
CITY           SKY/WX    TMP DP  RH WIND       PRES   REMARKS
ALBANY         CLEAR     43  39  86 N3        30.40R                  
NEW YORK CITY  PTCLDY    59  29  31 N9        30.36R                  
$$
 
ANZALL-200300-
MARINE OBSERVATIONS
  
STATION/POSITION TIME  TEMP    WIND        PRES    VSBY  WAVE
                       AIR SEA DIR/SP/G                  HT/PER
                 (UTC) (F)     (DEG/KT/KT) (MB)    (MI)  (FT/S)
BOSTON BUOY      0150   57 62   20/  4/  6 1027.3R         5/ 7
BUZZARDS BAY     0100           80/ 12/ 14 1028.4R
NANTUCKET SOUND  0150      67   40/ 12/ 16   N/A           1/ 3
MASS BAY-STELLWA 0104   56      50/  2/  4 1026.0R  1 7/8  5/ 6
ISLE OF SHOALS   0100   56     270/  3/  4 1027.8R
S OF BLOCK IS    0126      68                N/A           4/13
$$

......................KEY.........................
  SKY/WX - SKY CONDITION/PRESENT WEATHER
  TMP    - TEMPERATURE IN FAHRENHEIT
  DWPT   - DEWPOINT IN FAHRENHEIT
  RH     - RELATIVE HUMIDITY IN PERCENT
  WIND   - DIRECTION AND SPEED IN MPH
  PRES   - MEAN SEA LEVEL PRESSURE IN INCHES OF HG
  WCI    - WIND CHILL INDEX
  VSB    - VISIBILITY IN MILES
  HX     - HEAT INDEX
  TC     - TEMPERATURE IN CELSIUS
  VRB    - VARIABLE WIND DIRECTION
  N/A    - NOT AVAILABLE
  
      

Other recent Regional Weather Roundups

Sun Sep 20, 9:04pm

Sun Sep 20, 8:05pm

Sun Sep 20, 7:04pm

Sun Sep 20, 6:04pm

Sun Sep 20, 5:04pm

Sun Sep 20, 4:04pm

Sun Sep 20, 3:05pm

Sun Sep 20, 2:05pm

Sun Sep 20, 1:04pm

Sun Sep 20, 12:04pm

Sun Sep 20, 11:04am

Sun Sep 20, 10:04am

Sun Sep 20, 9:04am

Sun Sep 20, 8:04am

Sun Sep 20, 7:04am

Sun Sep 20, 6:04am

Sun Sep 20, 5:04am

Sun Sep 20, 4:04am

Sun Sep 20, 3:05am

Sun Sep 20, 2:04am

Sun Sep 20, 1:04am

Sun Sep 20, 12:04am

Sat Sep 19, 11:04pm

Sat Sep 19, 9:04pm

Sat Sep 19, 8:05pm

Sat Sep 19, 7:04pm

Sat Sep 19, 6:05pm

Sat Sep 19, 5:04pm

Sat Sep 19, 4:04pm

Sat Sep 19, 3:04pm

Sat Sep 19, 2:04pm

Sat Sep 19, 1:05pm

Sat Sep 19, 12:04pm

Sat Sep 19, 11:04am

Sat Sep 19, 10:04am

Sat Sep 19, 9:05am

Sat Sep 19, 8:04am

Sat Sep 19, 7:04am

Sat Sep 19, 6:04am

Sat Sep 19, 5:04am

Sat Sep 19, 4:04am

Sat Sep 19, 3:04am

Sat Sep 19, 2:04am

Sat Sep 19, 1:04am

Sat Sep 19, 12:04am

Fri Sep 18, 11:05pm

Fri Sep 18, 10:04pm

Fri Sep 18, 9:04pm

Fri Sep 18, 8:04pm

Fri Sep 18, 7:04pm

Fri Sep 18, 6:04pm

Fri Sep 18, 5:05pm

Fri Sep 18, 4:04pm

Fri Sep 18, 3:05pm

Fri Sep 18, 2:04pm

Fri Sep 18, 1:04pm

Fri Sep 18, 12:04pm

Fri Sep 18, 11:05am

Fri Sep 18, 10:05am

Fri Sep 18, 9:04am

Fri Sep 18, 8:04am

Fri Sep 18, 7:04am

Fri Sep 18, 6:04am

Fri Sep 18, 5:04am

Fri Sep 18, 4:04am

Fri Sep 18, 3:04am

Fri Sep 18, 2:04am

Fri Sep 18, 1:04am

Fri Sep 18, 12:04am

Thu Sep 17, 11:05pm

Thu Sep 17, 10:04pm

Thu Sep 17, 9:04pm

Thu Sep 17, 8:05pm

Thu Sep 17, 7:04pm

Thu Sep 17, 6:04pm

Thu Sep 17, 5:04pm

Thu Sep 17, 4:04pm

Thu Sep 17, 3:05pm

Thu Sep 17, 2:04pm

Thu Sep 17, 1:04pm

Thu Sep 17, 12:04pm

Thu Sep 17, 11:04am

Thu Sep 17, 10:04am

Thu Sep 17, 9:04am

Thu Sep 17, 8:04am

Thu Sep 17, 7:04am

Thu Sep 17, 6:04am

Thu Sep 17, 5:04am

Thu Sep 17, 4:04am

Thu Sep 17, 3:04am

Thu Sep 17, 2:05am

Thu Sep 17, 1:05am

Thu Sep 17, 12:04am

Wed Sep 16, 11:04pm

Wed Sep 16, 10:04pm

Wed Sep 16, 9:04pm

Wed Sep 16, 8:05pm

Wed Sep 16, 7:04pm

Wed Sep 16, 6:04pm

Wed Sep 16, 5:04pm

Wed Sep 16, 4:04pm

Wed Sep 16, 3:04pm

Wed Sep 16, 2:04pm

Wed Sep 16, 1:04pm

Wed Sep 16, 12:04pm

Wed Sep 16, 11:04am

Wed Sep 16, 10:04am

Wed Sep 16, 9:04am

Wed Sep 16, 8:04am

Wed Sep 16, 7:04am

Wed Sep 16, 6:04am

Wed Sep 16, 5:04am

Wed Sep 16, 4:04am

Wed Sep 16, 3:04am

Wed Sep 16, 2:04am

Wed Sep 16, 1:04am

Wed Sep 16, 12:05am

Tue Sep 15, 11:04pm

Tue Sep 15, 10:04pm

Tue Sep 15, 9:04pm

Tue Sep 15, 8:04pm

Tue Sep 15, 7:04pm

Tue Sep 15, 6:04pm

Tue Sep 15, 5:04pm

Tue Sep 15, 4:05pm

Tue Sep 15, 3:04pm

Tue Sep 15, 2:04pm

Tue Sep 15, 1:04pm

Tue Sep 15, 12:04pm

Tue Sep 15, 11:04am

Tue Sep 15, 10:04am

Tue Sep 15, 9:04am

Tue Sep 15, 8:04am

Tue Sep 15, 7:04am

Tue Sep 15, 6:04am

Tue Sep 15, 5:04am

Tue Sep 15, 4:04am

Tue Sep 15, 3:04am

Tue Sep 15, 2:04am

Tue Sep 15, 1:04am

Tue Sep 15, 12:05am

Mon Sep 14, 11:04pm

Mon Sep 14, 10:04pm

Mon Sep 14, 9:04pm

Mon Sep 14, 8:04pm

Mon Sep 14, 7:04pm

Mon Sep 14, 6:04pm

Mon Sep 14, 5:04pm

Mon Sep 14, 4:05pm

Mon Sep 14, 3:04pm

Mon Sep 14, 2:05pm

Mon Sep 14, 1:04pm

Mon Sep 14, 12:04pm

Mon Sep 14, 11:04am

Mon Sep 14, 10:05am

Mon Sep 14, 9:04am

Mon Sep 14, 8:04am

Mon Sep 14, 7:04am

Mon Sep 14, 6:04am

Mon Sep 14, 5:04am

Mon Sep 14, 4:04am

Mon Sep 14, 3:04am

Mon Sep 14, 2:04am

Mon Sep 14, 1:04am

Mon Sep 14, 12:04am

Sun Sep 13, 11:05pm

Sun Sep 13, 10:04pm

Meta data:

ID: 4365cac0-cd21-4609-9ff2-10d515c0e5b2
Link: https://api.weather.gov/products/4365cac0-cd21-4609-9ff2-10d515c0e5b2